Preview of NWS' New Version of Forecast
This preview is not operational and should not be used for support decisions.

Regional Weather Roundup (RWR)

Issued by National Weather Service (NWS)

                            
000
ASPQ40 PGUM 230310
RWRPQ 
WEATHER ROUNDUP FOR THE MARIANAS AND MICRONESIA
NATIONAL WEATHER SERVICE TIYAN GU
100 PM CHST SUN JUN 23 2019

GUZ001>004-230400-
MARIANA ISLANDS-
  
CITY           SKY/WX    TMP DP  RH WIND       PRES   REMARKS
GUAM AIRPORT   MOSUNNY   90  75  62 E14       29.86F HX 100           
ANDERSEN AFB   MOSUNNY   88  77  70 E15G22    29.87F HX 100           
ROTA AIRPORT   MOSUNNY   86  73  66 E18       29.86F HX  93           
TINIAN AP      MOSUNNY   88  75  66 E17       29.85F HX  97           
SAIPAN AP      MOSUNNY   90  75  62 E18       29.86F HX 100           

$$

PMZ161-230400-
REPUBLIC OF PALAU-
  
CITY           SKY/WX    TMP DP  RH WIND       PRES   REMARKS
KOROR AP       NOT AVBL                                               
KOROR WSO      NOT AVBL                                               

$$

PMZ171>174-230400-
FEDERATED STATES OF MICRONESIA-
  
CITY           SKY/WX    TMP DP  RH WIND       PRES   REMARKS
YAP AIRPORT    PTSUNNY   90  81  74 SE8       29.82S HX 108           
CHUUK AP       PTSUNNY   90  81  74 VRB6      29.77F HX 108           
POHNPEI AP     CLOUDY    88  77  70 E12       29.76F HX 100           
POHNPEI WSO    CLOUDY    86  77  74 E8        29.80F HX  97           
KOSRAE AP      NOT AVBL                                               

$$

PMZ181-230400-
REPUBLIC OF THE MARSHALL ISLANDS-
  
CITY           SKY/WX    TMP DP  RH WIND       PRES   REMARKS
KWAJALEIN AP   MOSUNNY   88  77  70 NE10      29.78F HX 100           
MAJURO AP      NOT AVBL                                               
MAJURO WSO     PTSUNNY   86  77  74 E16       29.74F HX  97           

$$